Orbital Elements at Epoch 2459200.5 (2020-Dec-17.0) TDB
Reference: JPL 20 (heliocentric ecliptic J2000)
Element | Value | Uncertainty (1-sigma) | Units |
e | .08891398532804168 | 4.7097e-08 | |
a | 1.924280622355188 | 7.0148e-09 | au |
q | 1.753185163332064 | 9.0129e-08 | au |
i | 20.55469697610223 | 7.3688e-06 | deg |
node | 217.0267500850979 | 1.2027e-05 | deg |
peri | 131.5468904700756 | 4.0684e-05 | deg |
M | 242.768226203976 | 3.9581e-05 | deg |
tp | 2459518.000104129401 (2021-Oct-30.50010413) | 0.00010777 | TDB |
period | 974.9919649382709 2.67 | 5.3314e-06 1.46e-08 | d yr |
n | .3692338121194593 | 2.019e-09 | deg/d |
Q | 2.095376081378312 | 7.6385e-09 | au |
|
| | Orbit Determination Parameters
Additional Information
|